Time,TemperatureF,DewpointF,PressureIn,WindDirection,WindDirectionDegrees,WindSpeedMPH,WindSpeedGustMPH,Humidity,HourlyPrecipIn,Conditions,Clouds,dailyrainin,SoftwareType,DateUTC
2014-01-12 00:00:00,33.3,33.0,30.13,NE,45,0.0,0.0,99,0.00,,,0.00,pywws,2014-01-12 00:00:00,
2014-01-12 00:05:00,33.3,33.0,30.12,NE,45,0.0,0.7,99,0.00,,,0.00,pywws,2014-01-12 00:05:00,
2014-01-12 00:10:00,33.1,32.8,30.12,North,0,0.7,2.2,99,0.00,,,0.00,pywws,2014-01-12 00:10:00,
2014-01-12 00:15:00,33.3,33.0,30.12,NE,45,0.0,0.7,99,0.00,,,0.00,pywws,2014-01-12 00:15:00,
2014-01-12 00:20:00,32.7,32.5,30.13,NE,45,0.0,0.7,99,0.00,,,0.00,pywws,2014-01-12 00:20:00,
2014-01-12 00:25:00,32.0,31.8,30.13,South,180,0.0,0.0,99,0.00,,,0.00,pywws,2014-01-12 00:25:00,
2014-01-12 00:30:00,32.0,31.8,30.13,SW,225,0.0,0.7,99,0.00,,,0.00,pywws,2014-01-12 00:30:00,
2014-01-12 00:35:00,31.8,31.6,30.13,North,0,0.0,1.6,99,0.00,,,0.00,pywws,2014-01-12 00:35:00,
2014-01-12 00:40:00,31.8,31.6,30.13,SE,135,0.0,0.7,99,0.00,,,0.00,pywws,2014-01-12 00:40:00,
2014-01-12 00:45:00,31.5,31.2,30.12,North,0,0.0,0.7,99,0.00,,,0.00,pywws,2014-01-12 00:45:00,
2014-01-12 00:50:00,31.6,31.4,30.12,North,0,0.0,0.7,99,0.00,,,0.00,pywws,2014-01-12 00:50:00,
2014-01-12 01:00:00,32.0,31.8,30.12,North,0,0.0,0.0,99,0.00,,,0.00,pywws,2014-01-12 01:00:00,
2014-01-12 01:05:00,31.5,31.2,30.13,North,0,0.0,0.0,99,0.00,,,0.00,pywws,2014-01-12 01:05:00,
2014-01-12 01:10:00,31.1,30.9,30.12,SE,135,0.0,0.0,99,0.00,,,0.00,pywws,2014-01-12 01:10:00,
2014-01-12 01:15:00,30.7,30.5,30.11,SE,135,0.0,0.7,99,0.00,,,0.00,pywws,2014-01-12 01:15:00,
2014-01-12 01:20:00,30.6,30.3,30.12,SE,135,0.0,0.7,99,0.00,,,0.00,pywws,2014-01-12 01:20:00,
2014-01-12 01:26:00,30.6,30.3,30.12,SE,135,0.0,0.0,99,0.00,,,0.00,pywws,2014-01-12 01:26:00,
2014-01-12 01:31:00,30.6,30.3,30.12,SE,135,0.0,0.7,99,0.00,,,0.00,pywws,2014-01-12 01:31:00,
2014-01-12 01:36:00,30.6,30.3,30.11,North,0,0.7,3.8,99,0.00,,,0.00,pywws,2014-01-12 01:36:00,
2014-01-12 01:42:00,31.8,31.6,30.12,South,180,0.0,0.0,99,0.00,,,0.00,pywws,2014-01-12 01:42:00,
2014-01-12 01:47:00,31.6,31.4,30.12,South,180,0.0,0.0,99,0.00,,,0.00,pywws,2014-01-12 01:47:00,
2014-01-12 01:52:00,31.6,31.4,30.12,South,180,0.0,0.0,99,0.00,,,0.00,pywws,2014-01-12 01:52:00,
2014-01-12 02:03:00,31.6,31.4,30.12,South,180,0.0,0.0,99,0.00,,,0.00,pywws,2014-01-12 02:03:00,
2014-01-12 02:08:00,31.8,31.6,30.11,NW,315,0.0,0.0,99,0.00,,,0.00,pywws,2014-01-12 02:08:00,
2014-01-12 02:14:00,31.6,31.4,30.12,NW,315,0.0,0.0,99,0.00,,,0.00,pywws,2014-01-12 02:14:00,
2014-01-12 02:19:00,31.8,31.6,30.11,South,180,0.0,1.6,99,0.00,,,0.00,pywws,2014-01-12 02:19:00,
2014-01-12 02:24:00,31.8,31.6,30.11,South,180,0.0,0.7,99,0.00,,,0.00,pywws,2014-01-12 02:24:00,
2014-01-12 02:30:00,31.6,31.4,30.11,NE,45,0.0,0.0,99,0.00,,,0.00,pywws,2014-01-12 02:30:00,
2014-01-12 02:35:00,31.5,31.2,30.11,NE,45,0.0,0.0,99,0.00,,,0.00,pywws,2014-01-12 02:35:00,
2014-01-12 02:40:00,31.1,30.9,30.11,South,180,0.0,0.0,99,0.00,,,0.00,pywws,2014-01-12 02:40:00,
2014-01-12 02:46:00,31.3,31.0,30.11,South,180,0.0,0.7,99,0.00,,,0.00,pywws,2014-01-12 02:46:00,
2014-01-12 03:00:00,31.5,31.2,30.11,NW,315,0.0,1.6,99,0.00,,,0.00,pywws,2014-01-12 03:00:00,
2014-01-12 03:02:00,31.8,31.6,30.11,West,270,0.0,0.0,99,0.00,,,0.00,pywws,2014-01-12 03:02:00,
2014-01-12 03:07:00,32.0,31.8,30.11,West,270,0.0,0.0,99,0.00,,,0.00,pywws,2014-01-12 03:07:00,
2014-01-12 03:12:00,32.0,31.8,30.10,West,270,0.0,0.0,99,0.00,,,0.00,pywws,2014-01-12 03:12:00,
2014-01-12 03:18:00,32.0,31.8,30.11,West,270,0.0,0.0,99,0.00,,,0.00,pywws,2014-01-12 03:18:00,
2014-01-12 03:23:00,32.0,31.8,30.11,West,270,0.0,0.0,99,0.00,,,0.00,pywws,2014-01-12 03:23:00,
2014-01-12 03:28:00,31.6,31.4,30.10,North,0,0.0,1.6,99,0.00,,,0.00,pywws,2014-01-12 03:28:00,
2014-01-12 03:34:00,31.5,31.2,30.10,North,0,0.0,0.7,99,0.00,,,0.00,pywws,2014-01-12 03:34:00,
2014-01-12 03:39:00,31.5,31.2,30.10,North,0,0.0,0.7,99,0.00,,,0.00,pywws,2014-01-12 03:39:00,
2014-01-12 03:44:00,31.5,31.2,30.10,SSE,158,0.0,1.6,99,0.00,,,0.00,pywws,2014-01-12 03:44:00,
2014-01-12 03:50:00,30.7,30.5,30.10,SSE,158,0.0,0.0,99,0.00,,,0.00,pywws,2014-01-12 03:50:00,
2014-01-12 04:00:00,30.2,30.0,30.10,SW,225,0.0,0.7,99,0.00,,,0.00,pywws,2014-01-12 04:00:00,
2014-01-12 04:06:00,30.0,29.8,30.10,SE,135,0.0,0.0,99,0.00,,,0.00,pywws,2014-01-12 04:06:00,
2014-01-12 04:11:00,29.8,29.6,30.10,SE,135,0.0,0.0,99,0.00,,,0.00,pywws,2014-01-12 04:11:00,
2014-01-12 04:16:00,29.7,29.4,30.09,SE,135,0.0,0.0,99,0.00,,,0.00,pywws,2014-01-12 04:16:00,
2014-01-12 04:22:00,29.5,29.2,30.09,SE,135,0.0,0.0,99,0.00,,,0.00,pywws,2014-01-12 04:22:00,
2014-01-12 04:27:00,29.5,29.2,30.10,SE,135,0.0,0.0,99,0.00,,,0.00,pywws,2014-01-12 04:27:00,
2014-01-12 04:32:00,29.3,29.1,30.09,SE,135,0.0,0.0,99,0.00,,,0.00,pywws,2014-01-12 04:32:00,
2014-01-12 04:38:00,28.9,28.7,30.09,SE,135,0.0,0.0,99,0.00,,,0.00,pywws,2014-01-12 04:38:00,
2014-01-12 04:43:00,28.8,28.5,30.09,SE,135,0.0,0.0,99,0.00,,,0.00,pywws,2014-01-12 04:43:00,
2014-01-12 04:48:00,28.9,28.7,30.09,NW,315,0.0,0.0,99,0.00,,,0.00,pywws,2014-01-12 04:48:00,
2014-01-12 05:00:00,28.6,28.3,30.09,NW,315,0.0,0.0,99,0.00,,,0.00,pywws,2014-01-12 05:00:00,
2014-01-12 05:04:00,28.8,28.5,30.08,NW,315,0.0,0.0,99,0.00,,,0.00,pywws,2014-01-12 05:04:00,
2014-01-12 05:10:00,29.1,28.9,30.09,NNE,22,0.0,1.6,99,0.00,,,0.00,pywws,2014-01-12 05:10:00,
2014-01-12 05:15:00,29.7,29.4,30.08,NE,45,0.0,1.6,99,0.00,,,0.00,pywws,2014-01-12 05:15:00,
2014-01-12 05:20:00,30.2,30.0,30.07,North,0,0.0,0.7,99,0.00,,,0.00,pywws,2014-01-12 05:20:00,
2014-01-12 05:26:00,30.6,30.3,30.07,North,0,0.0,0.0,99,0.00,,,0.00,pywws,2014-01-12 05:26:00,
2014-01-12 05:31:00,30.4,30.1,30.07,East,90,0.0,0.7,99,0.00,,,0.00,pywws,2014-01-12 05:31:00,
2014-01-12 05:36:00,30.2,30.0,30.07,NE,45,0.7,3.8,99,0.00,,,0.00,pywws,2014-01-12 05:36:00,
2014-01-12 05:42:00,30.4,30.1,30.07,NW,315,0.0,1.6,99,0.00,,,0.00,pywws,2014-01-12 05:42:00,
2014-01-12 05:47:00,30.6,30.3,30.07,NE,45,0.0,0.7,99,0.00,,,0.00,pywws,2014-01-12 05:47:00,
2014-01-12 06:00:00,30.7,30.5,30.06,NNW,338,0.0,1.6,99,0.00,,,0.00,pywws,2014-01-12 06:00:00,
2014-01-12 06:03:00,31.3,31.0,30.06,West,270,0.0,0.7,99,0.00,,,0.00,pywws,2014-01-12 06:03:00,
2014-01-12 06:08:00,31.3,31.0,30.06,NW,315,0.0,0.0,99,0.00,,,0.00,pywws,2014-01-12 06:08:00,
2014-01-12 06:14:00,30.9,30.7,30.06,North,0,0.0,1.6,99,0.00,,,0.00,pywws,2014-01-12 06:14:00,
2014-01-12 06:19:00,31.1,30.9,30.06,North,0,0.0,0.7,99,0.00,,,0.00,pywws,2014-01-12 06:19:00,
2014-01-12 06:24:00,31.3,31.0,30.07,North,0,0.0,0.7,99,0.00,,,0.00,pywws,2014-01-12 06:24:00,
2014-01-12 06:30:00,31.5,31.2,30.06,NW,315,0.7,2.2,99,0.00,,,0.00,pywws,2014-01-12 06:30:00,
2014-01-12 06:35:00,31.8,31.6,30.06,NW,315,0.0,1.6,99,0.00,,,0.00,pywws,2014-01-12 06:35:00,
2014-01-12 06:40:00,32.0,31.8,30.05,NW,315,0.0,0.0,99,0.00,,,0.00,pywws,2014-01-12 06:40:00,
2014-01-12 06:46:00,32.0,31.8,30.05,NW,315,0.7,2.2,99,0.00,,,0.00,pywws,2014-01-12 06:46:00,
2014-01-12 07:00:00,32.2,31.9,30.05,NE,45,0.0,0.7,99,0.00,,,0.00,pywws,2014-01-12 07:00:00,
2014-01-12 07:02:00,31.8,31.6,30.04,South,180,0.0,0.0,99,0.00,,,0.00,pywws,2014-01-12 07:02:00,
2014-01-12 07:07:00,31.6,31.4,30.04,SW,225,0.0,0.7,99,0.00,,,0.00,pywws,2014-01-12 07:07:00,
2014-01-12 07:12:00,31.5,31.2,30.03,South,180,0.0,1.6,99,0.00,,,0.00,pywws,2014-01-12 07:12:00,
2014-01-12 07:18:00,31.5,31.2,30.03,South,180,0.0,0.0,99,0.00,,,0.00,pywws,2014-01-12 07:18:00,
2014-01-12 07:23:00,31.5,31.2,30.03,South,180,0.0,0.0,99,0.00,,,0.00,pywws,2014-01-12 07:23:00,
2014-01-12 07:28:00,31.5,31.2,30.02,North,0,0.0,0.7,99,0.00,,,0.00,pywws,2014-01-12 07:28:00,
2014-01-12 07:34:00,31.6,31.4,30.02,North,0,0.0,0.0,99,0.00,,,0.00,pywws,2014-01-12 07:34:00,
2014-01-12 07:39:00,31.5,31.2,30.02,North,0,0.0,0.0,99,0.00,,,0.00,pywws,2014-01-12 07:39:00,
2014-01-12 07:44:00,31.1,30.9,30.02,North,0,0.0,0.0,99,0.00,,,0.00,pywws,2014-01-12 07:44:00,
2014-01-12 07:50:00,31.5,31.2,30.01,North,0,0.0,0.7,99,0.00,,,0.00,pywws,2014-01-12 07:50:00,
2014-01-12 08:00:00,31.5,31.2,30.01,North,0,0.0,0.7,99,0.00,,,0.00,pywws,2014-01-12 08:00:00,
2014-01-12 08:06:00,31.1,30.9,30.01,NW,315,0.0,0.0,99,0.00,,,0.00,pywws,2014-01-12 08:06:00,
2014-01-12 08:11:00,30.7,30.5,30.01,NW,315,0.0,0.0,99,0.00,,,0.00,pywws,2014-01-12 08:11:00,
2014-01-12 08:16:00,30.9,30.7,30.00,NW,315,0.0,0.7,99,0.00,,,0.00,pywws,2014-01-12 08:16:00,
2014-01-12 08:22:00,31.3,31.0,30.00,North,0,0.0,0.7,99,0.00,,,0.00,pywws,2014-01-12 08:22:00,
2014-01-12 08:27:00,31.3,31.0,30.00,North,0,0.0,0.0,99,0.00,,,0.00,pywws,2014-01-12 08:27:00,
2014-01-12 08:32:00,31.5,31.2,29.99,NNW,338,0.7,3.8,99,0.00,,,0.00,pywws,2014-01-12 08:32:00,
2014-01-12 08:38:00,32.2,31.9,29.99,NW,315,0.7,3.1,99,0.00,,,0.00,pywws,2014-01-12 08:38:00,
2014-01-12 08:43:00,32.5,32.3,29.99,NW,315,0.0,0.7,99,0.00,,,0.00,pywws,2014-01-12 08:43:00,
2014-01-12 08:48:00,32.7,32.5,29.99,North,0,0.0,2.2,99,0.00,,,0.00,pywws,2014-01-12 08:48:00,
2014-01-12 09:00:00,32.9,32.7,29.99,South,180,0.0,0.7,99,0.00,,,0.00,pywws,2014-01-12 09:00:00,
2014-01-12 09:04:00,32.9,32.7,29.99,North,0,0.7,1.6,99,0.00,,,0.00,pywws,2014-01-12 09:04:00,
2014-01-12 09:10:00,33.1,32.8,29.99,North,0,0.0,0.7,99,0.00,,,0.00,pywws,2014-01-12 09:10:00,
2014-01-12 09:26:00,33.6,33.4,29.98,NW,315,1.6,3.1,99,0.00,,,0.00,pywws,2014-01-12 09:26:00,
2014-01-12 09:46:00,34.7,34.4,29.98,NW,315,1.6,3.8,99,0.00,,,0.00,pywws,2014-01-12 09:46:00,
2014-01-12 10:00:00,35.1,34.8,29.97,NE,45,3.1,5.4,99,0.00,,,0.00,pywws,2014-01-12 10:00:00,
2014-01-12 10:02:00,36.0,34.7,29.97,North,0,2.2,4.5,95,0.00,,,0.00,pywws,2014-01-12 10:02:00,
2014-01-12 10:07:00,36.0,34.4,29.97,North,0,2.2,4.5,94,0.00,,,0.00,pywws,2014-01-12 10:07:00,
2014-01-12 10:12:00,35.8,34.2,29.96,North,0,1.6,3.1,94,0.00,,,0.00,pywws,2014-01-12 10:12:00,
2014-01-12 10:18:00,35.8,34.2,29.96,North,0,1.6,3.8,94,0.00,,,0.00,pywws,2014-01-12 10:18:00,
2014-01-12 10:23:00,35.8,34.2,29.96,NW,315,1.6,2.2,94,0.00,,,0.00,pywws,2014-01-12 10:23:00,
2014-01-12 10:28:00,35.8,34.2,29.96,North,0,2.2,3.8,94,0.00,,,0.00,pywws,2014-01-12 10:28:00,
2014-01-12 10:34:00,36.0,34.1,29.96,North,0,0.7,2.2,93,0.00,,,0.00,pywws,2014-01-12 10:34:00,
2014-01-12 10:39:00,36.1,34.3,29.96,North,0,0.7,2.2,93,0.00,,,0.00,pywws,2014-01-12 10:39:00,
2014-01-12 10:44:00,36.3,34.5,29.96,North,0,0.0,2.2,93,0.00,,,0.00,pywws,2014-01-12 10:44:00,
2014-01-12 10:50:00,36.3,34.5,29.95,North,0,0.7,2.2,93,0.00,,,0.00,pywws,2014-01-12 10:50:00,
2014-01-12 11:01:00,36.5,34.7,29.95,North,0,0.0,0.7,93,0.00,,,0.00,pywws,2014-01-12 11:01:00,
2014-01-12 11:05:00,37.8,35.9,29.94,North,0,0.0,0.7,93,0.00,,,0.00,pywws,2014-01-12 11:05:00,
2014-01-12 11:10:00,37.8,35.4,29.94,North,0,0.7,1.6,91,0.00,,,0.00,pywws,2014-01-12 11:10:00,
2014-01-12 11:15:00,37.8,35.4,29.93,North,0,0.0,1.6,91,0.00,,,0.00,pywws,2014-01-12 11:15:00,
2014-01-12 11:20:00,37.8,34.8,29.93,North,0,0.7,1.6,89,0.00,,,0.00,pywws,2014-01-12 11:20:00,
2014-01-12 11:25:00,37.9,34.7,29.92,North,0,0.7,1.6,88,0.00,,,0.00,pywws,2014-01-12 11:25:00,
2014-01-12 11:30:00,38.1,34.6,29.91,North,0,0.7,2.2,87,0.00,,,0.00,pywws,2014-01-12 11:30:00,
2014-01-12 11:35:00,38.1,34.3,29.91,North,0,0.7,1.6,86,0.00,,,0.00,pywws,2014-01-12 11:35:00,
2014-01-12 11:40:00,38.3,34.2,29.91,SW,225,0.0,0.0,85,0.00,,,0.00,pywws,2014-01-12 11:40:00,
2014-01-12 11:45:00,38.5,34.1,29.89,SE,135,0.0,1.6,84,0.00,,,0.00,pywws,2014-01-12 11:45:00,
2014-01-12 11:50:00,38.3,34.2,29.89,South,180,0.0,0.0,85,0.00,,,0.00,pywws,2014-01-12 11:50:00,
2014-01-12 12:00:00,38.1,34.0,29.89,South,180,0.0,0.7,85,0.00,,,0.00,pywws,2014-01-12 12:00:00,
2014-01-12 12:05:00,38.3,34.2,29.88,NW,315,0.7,2.2,85,0.00,,,0.00,pywws,2014-01-12 12:05:00,
2014-01-12 12:10:00,38.5,33.2,29.88,North,0,2.2,3.8,81,0.00,,,0.00,pywws,2014-01-12 12:10:00,
2014-01-12 12:15:00,38.5,31.9,29.87,North,0,4.5,6.0,77,0.00,,,0.00,pywws,2014-01-12 12:15:00,
2014-01-12 12:20:00,38.7,31.8,29.86,North,0,5.4,9.2,76,0.00,,,0.00,pywws,2014-01-12 12:20:00,
2014-01-12 12:25:00,38.7,31.4,29.85,North,0,5.4,8.3,75,0.00,,,0.00,pywws,2014-01-12 12:25:00,
2014-01-12 12:30:00,38.8,31.3,29.85,North,0,3.8,6.0,74,0.00,,,0.00,pywws,2014-01-12 12:30:00,
2014-01-12 12:35:00,38.8,31.3,29.85,West,270,2.2,6.0,74,0.00,,,0.00,pywws,2014-01-12 12:35:00,
2014-01-12 12:40:00,38.8,30.6,29.84,NW,315,3.1,6.9,72,0.00,,,0.00,pywws,2014-01-12 12:40:00,
2014-01-12 12:45:00,39.0,30.4,29.85,NW,315,4.5,7.6,71,0.00,,,0.00,pywws,2014-01-12 12:45:00,
2014-01-12 12:50:00,39.2,30.9,29.85,North,0,1.6,6.0,72,0.00,,,0.00,pywws,2014-01-12 12:50:00,
2014-01-12 13:00:00,39.2,30.9,29.85,North,0,1.6,3.8,72,0.00,,,0.00,pywws,2014-01-12 13:00:00,
2014-01-12 13:05:00,39.4,31.1,29.85,NE,45,0.7,2.2,72,0.00,,,0.00,pywws,2014-01-12 13:05:00,
2014-01-12 13:10:00,39.4,30.8,29.85,North,0,4.5,6.9,71,0.00,,,0.00,pywws,2014-01-12 13:10:00,
2014-01-12 13:15:00,39.4,31.1,29.84,South,180,0.7,3.8,72,0.00,,,0.00,pywws,2014-01-12 13:15:00,
2014-01-12 13:20:00,39.6,31.3,29.84,NE,45,0.0,0.7,72,0.00,,,0.00,pywws,2014-01-12 13:20:00,
2014-01-12 13:25:00,39.6,30.9,29.84,NE,45,0.7,3.8,71,0.00,,,0.00,pywws,2014-01-12 13:25:00,
2014-01-12 13:30:00,39.9,31.3,29.83,SW,225,0.7,2.2,71,0.00,,,0.00,pywws,2014-01-12 13:30:00,
2014-01-12 13:35:00,40.1,31.8,29.83,NW,315,0.0,0.0,72,0.00,,,0.00,pywws,2014-01-12 13:35:00,
2014-01-12 13:40:00,40.5,32.2,29.83,NW,315,1.6,3.1,72,0.00,,,0.00,pywws,2014-01-12 13:40:00,
2014-01-12 13:45:00,40.5,31.8,29.81,North,0,1.6,3.1,71,0.00,,,0.00,pywws,2014-01-12 13:45:00,
2014-01-12 13:50:00,40.3,31.6,29.81,North,0,0.7,2.2,71,0.00,,,0.00,pywws,2014-01-12 13:50:00,
2014-01-12 14:01:00,39.9,31.6,29.80,North,0,0.7,3.1,72,0.00,,,0.00,pywws,2014-01-12 14:01:00,
2014-01-12 14:05:00,39.6,32.0,29.80,West,270,0.0,0.7,74,0.00,,,0.00,pywws,2014-01-12 14:05:00,
2014-01-12 14:10:00,39.2,31.6,29.80,NW,315,0.0,0.7,74,0.00,,,0.00,pywws,2014-01-12 14:10:00,
2014-01-12 14:15:00,38.8,31.3,29.80,NE,45,0.0,0.7,74,0.00,,,0.00,pywws,2014-01-12 14:15:00,
2014-01-12 14:20:00,38.5,31.3,29.80,NE,45,0.0,0.7,75,0.00,,,0.00,pywws,2014-01-12 14:20:00,
2014-01-12 14:25:00,38.3,31.4,29.79,South,180,0.0,0.7,76,0.00,,,0.00,pywws,2014-01-12 14:25:00,
2014-01-12 14:30:00,38.1,31.2,29.79,NE,45,0.7,2.2,76,0.00,,,0.00,pywws,2014-01-12 14:30:00,
2014-01-12 14:35:00,37.9,31.4,29.78,NNW,338,0.7,1.6,77,0.00,,,0.00,pywws,2014-01-12 14:35:00,
2014-01-12 14:40:00,37.9,31.1,29.79,NW,315,1.6,3.1,76,0.00,,,0.00,pywws,2014-01-12 14:40:00,
2014-01-12 14:45:00,37.9,30.7,29.78,North,0,0.7,3.1,75,0.00,,,0.00,pywws,2014-01-12 14:45:00,
2014-01-12 14:50:00,37.9,30.7,29.78,East,90,1.6,2.2,75,0.00,,,0.00,pywws,2014-01-12 14:50:00,
2014-01-12 15:01:00,37.9,30.7,29.78,North,0,0.7,2.2,75,0.00,,,0.00,pywws,2014-01-12 15:01:00,
2014-01-12 15:05:00,37.8,30.9,29.76,NNW,338,0.7,2.2,76,0.00,,,0.00,pywws,2014-01-12 15:05:00,
2014-01-12 15:10:00,37.6,30.4,29.76,NW,315,0.0,1.6,75,0.00,,,0.00,pywws,2014-01-12 15:10:00,
2014-01-12 15:15:00,37.6,30.4,29.76,North,0,0.7,3.1,75,0.00,,,0.00,pywws,2014-01-12 15:15:00,
2014-01-12 15:20:00,37.6,30.7,29.75,NE,45,0.7,2.2,76,0.00,,,0.00,pywws,2014-01-12 15:20:00,
2014-01-12 15:25:00,37.4,30.5,29.75,SW,225,0.0,2.2,76,0.00,,,0.00,pywws,2014-01-12 15:25:00,
2014-01-12 15:30:00,37.4,30.9,29.75,NW,315,1.6,3.1,77,0.00,,,0.00,pywws,2014-01-12 15:30:00,
2014-01-12 15:35:00,37.4,30.9,29.74,SW,225,0.7,3.1,77,0.00,,,0.00,pywws,2014-01-12 15:35:00,
2014-01-12 15:40:00,37.2,30.7,29.74,North,0,1.6,3.1,77,0.00,,,0.00,pywws,2014-01-12 15:40:00,
2014-01-12 15:45:00,37.2,30.7,29.73,North,0,0.0,1.6,77,0.00,,,0.00,pywws,2014-01-12 15:45:00,
2014-01-12 15:50:00,37.2,30.7,29.73,North,0,0.7,1.6,77,0.00,,,0.00,pywws,2014-01-12 15:50:00,
2014-01-12 16:00:00,37.2,30.7,29.73,East,90,0.0,1.6,77,0.00,,,0.00,pywws,2014-01-12 16:00:00,
2014-01-12 16:05:00,37.4,30.9,29.72,North,0,0.7,2.2,77,0.00,,,0.00,pywws,2014-01-12 16:05:00,
2014-01-12 16:10:00,37.4,30.9,29.72,NW,315,0.7,3.1,77,0.00,,,0.00,pywws,2014-01-12 16:10:00,
2014-01-12 16:15:00,37.2,30.7,29.72,NW,315,0.0,0.7,77,0.00,,,0.00,pywws,2014-01-12 16:15:00,
2014-01-12 16:20:00,37.0,30.5,29.72,NW,315,0.0,0.0,77,0.00,,,0.00,pywws,2014-01-12 16:20:00,
2014-01-12 16:25:00,36.9,30.7,29.72,NW,315,0.0,0.0,78,0.00,,,0.00,pywws,2014-01-12 16:25:00,
2014-01-12 16:30:00,36.5,30.3,29.72,North,0,0.0,0.7,78,0.00,,,0.00,pywws,2014-01-12 16:30:00,
2014-01-12 16:35:00,36.1,30.6,29.71,North,0,0.7,1.6,80,0.00,,,0.00,pywws,2014-01-12 16:35:00,
2014-01-12 16:40:00,36.3,30.8,29.71,North,0,0.0,0.7,80,0.00,,,0.00,pywws,2014-01-12 16:40:00,
2014-01-12 16:45:00,36.3,30.8,29.70,NNE,22,0.7,2.2,80,0.00,,,0.00,pywws,2014-01-12 16:45:00,
2014-01-12 16:50:00,36.5,30.6,29.71,North,0,0.0,0.7,79,0.00,,,0.00,pywws,2014-01-12 16:50:00,
2014-01-12 17:00:00,36.5,30.9,29.71,NE,45,0.7,2.2,80,0.00,,,0.00,pywws,2014-01-12 17:00:00,
2014-01-12 17:05:00,36.7,31.4,29.70,NNW,338,1.6,3.1,81,0.00,,,0.00,pywws,2014-01-12 17:05:00,
2014-01-12 17:10:00,36.7,31.4,29.69,North,0,0.7,2.2,81,0.00,,,0.00,pywws,2014-01-12 17:10:00,
2014-01-12 17:15:00,36.7,31.7,29.69,North,0,0.0,1.6,82,0.00,,,0.00,pywws,2014-01-12 17:15:00,
2014-01-12 17:20:00,36.5,31.5,29.68,NW,315,0.0,0.7,82,0.00,,,0.00,pywws,2014-01-12 17:20:00,
2014-01-12 17:25:00,36.5,31.8,29.68,North,0,0.0,1.6,83,0.00,,,0.00,pywws,2014-01-12 17:25:00,
2014-01-12 17:30:00,36.5,32.4,29.67,North,0,2.2,3.8,85,0.00,,,0.00,pywws,2014-01-12 17:30:00,
2014-01-12 17:35:00,36.7,32.9,29.67,NW,315,2.2,4.5,86,0.00,,,0.00,pywws,2014-01-12 17:35:00,
2014-01-12 17:40:00,36.5,32.7,29.66,North,0,1.6,5.4,86,0.00,,,0.00,pywws,2014-01-12 17:40:00,
2014-01-12 17:45:00,36.5,33.0,29.65,North,0,0.0,3.1,87,0.00,,,0.00,pywws,2014-01-12 17:45:00,
2014-01-12 17:50:00,36.3,33.1,29.65,South,180,0.7,3.1,88,0.00,,,0.00,pywws,2014-01-12 17:50:00,
2014-01-12 18:00:00,36.3,33.4,29.66,NW,315,0.7,2.2,89,0.00,,,0.00,pywws,2014-01-12 18:00:00,
2014-01-12 18:05:00,36.3,33.7,29.65,West,270,0.0,1.6,90,0.00,,,0.00,pywws,2014-01-12 18:05:00,
2014-01-12 18:10:00,36.3,33.7,29.65,NW,315,0.0,0.0,90,0.00,,,0.00,pywws,2014-01-12 18:10:00,
2014-01-12 18:15:00,36.3,33.9,29.65,WSW,248,0.0,1.6,91,0.00,,,0.00,pywws,2014-01-12 18:15:00,
2014-01-12 18:20:00,36.3,34.2,29.64,NE,45,3.8,8.3,92,0.00,,,0.00,pywws,2014-01-12 18:20:00,
2014-01-12 18:25:00,36.5,34.7,29.64,North,0,2.2,3.8,93,0.00,,,0.00,pywws,2014-01-12 18:25:00,
2014-01-12 18:30:00,36.7,34.9,29.63,NW,315,2.2,4.5,93,0.00,,,0.00,pywws,2014-01-12 18:30:00,
2014-01-12 18:35:00,36.7,35.1,29.63,NNE,22,2.2,3.8,94,0.00,,,0.00,pywws,2014-01-12 18:35:00,
2014-01-12 18:40:00,36.7,35.1,29.63,NW,315,3.1,5.4,94,0.00,,,0.00,pywws,2014-01-12 18:40:00,
2014-01-12 18:45:00,36.7,35.4,29.62,NE,45,2.2,4.5,95,0.00,,,0.00,pywws,2014-01-12 18:45:00,
2014-01-12 18:50:00,36.7,35.4,29.62,North,0,1.6,4.5,95,0.00,,,0.00,pywws,2014-01-12 18:50:00,
2014-01-12 19:00:00,36.7,35.4,29.62,NE,45,0.7,3.1,95,0.00,,,0.00,pywws,2014-01-12 19:00:00,
2014-01-12 19:05:00,36.9,35.6,29.62,NW,315,0.0,1.6,95,0.00,,,0.00,pywws,2014-01-12 19:05:00,
2014-01-12 19:10:00,36.9,35.6,29.60,NE,45,0.0,1.6,95,0.00,,,0.00,pywws,2014-01-12 19:10:00,
2014-01-12 19:15:00,36.9,35.8,29.60,North,0,0.7,2.2,96,0.00,,,0.00,pywws,2014-01-12 19:15:00,
2014-01-12 19:20:00,36.9,36.1,29.60,NW,315,1.6,9.2,97,0.00,,,0.00,pywws,2014-01-12 19:20:00,
2014-01-12 19:25:00,37.0,36.3,29.59,North,0,2.2,3.8,97,0.00,,,0.00,pywws,2014-01-12 19:25:00,
2014-01-12 19:30:00,37.2,36.7,29.59,North,0,0.7,2.2,98,0.00,,,0.00,pywws,2014-01-12 19:30:00,
2014-01-12 19:35:00,37.2,36.7,29.59,North,0,1.6,4.5,98,0.00,,,0.00,pywws,2014-01-12 19:35:00,
2014-01-12 19:40:00,37.2,36.7,29.58,North,0,1.6,3.1,98,0.00,,,0.00,pywws,2014-01-12 19:40:00,
2014-01-12 19:45:00,37.2,37.0,29.58,North,0,1.6,2.2,99,0.00,,,0.00,pywws,2014-01-12 19:45:00,
2014-01-12 19:50:00,37.2,37.0,29.58,East,90,2.2,4.5,99,0.00,,,0.00,pywws,2014-01-12 19:50:00,
2014-01-12 20:00:00,37.2,37.0,29.58,North,0,2.2,5.4,99,0.00,,,0.00,pywws,2014-01-12 20:00:00,
2014-01-12 20:05:00,37.2,37.0,29.56,NE,45,2.2,3.8,99,0.00,,,0.00,pywws,2014-01-12 20:05:00,
2014-01-12 20:10:00,37.2,37.0,29.56,NE,45,3.1,5.4,99,0.00,,,0.00,pywws,2014-01-12 20:10:00,
2014-01-12 20:15:00,37.2,37.0,29.56,North,0,3.8,8.3,99,0.00,,,0.00,pywws,2014-01-12 20:15:00,
2014-01-12 20:20:00,37.4,37.1,29.55,North,0,1.6,3.8,99,0.00,,,0.00,pywws,2014-01-12 20:20:00,
2014-01-12 20:25:00,37.4,37.1,29.54,North,0,4.5,7.6,99,0.00,,,0.00,pywws,2014-01-12 20:25:00,
2014-01-12 20:30:00,37.6,37.3,29.55,West,270,2.2,5.4,99,0.00,,,0.00,pywws,2014-01-12 20:30:00,
2014-01-12 20:35:00,37.6,37.3,29.54,North,0,2.2,9.2,99,0.00,,,0.00,pywws,2014-01-12 20:35:00,
2014-01-12 20:40:00,37.8,37.5,29.54,North,0,3.1,5.4,99,0.00,,,0.00,pywws,2014-01-12 20:40:00,
2014-01-12 20:45:00,37.9,37.7,29.54,NE,45,2.2,6.0,99,0.00,,,0.00,pywws,2014-01-12 20:45:00,
2014-01-12 20:50:00,38.1,37.9,29.53,North,0,3.8,9.2,99,0.00,,,0.00,pywws,2014-01-12 20:50:00,
2014-01-12 21:01:00,38.1,37.9,29.53,North,0,3.1,6.0,99,0.00,,,0.00,pywws,2014-01-12 21:01:00,
2014-01-12 21:05:00,38.1,37.9,29.52,West,270,0.0,1.6,99,0.00,,,0.00,pywws,2014-01-12 21:05:00,
2014-01-12 21:10:00,38.1,37.9,29.52,North,0,1.6,3.8,99,0.00,,,0.00,pywws,2014-01-12 21:10:00,
2014-01-12 21:15:00,38.3,38.0,29.51,North,0,2.2,6.0,99,0.00,,,0.00,pywws,2014-01-12 21:15:00,
2014-01-12 21:20:00,38.5,38.2,29.50,NW,315,2.2,5.4,99,0.00,,,0.00,pywws,2014-01-12 21:20:00,
2014-01-12 21:25:00,38.7,38.4,29.50,NW,315,2.2,4.5,99,0.00,,,0.00,pywws,2014-01-12 21:25:00,
2014-01-12 21:30:00,39.0,38.8,29.50,North,0,0.7,2.2,99,0.00,,,0.00,pywws,2014-01-12 21:30:00,
2014-01-12 21:35:00,39.2,38.9,29.50,SSW,202,0.0,2.2,99,0.00,,,0.00,pywws,2014-01-12 21:35:00,
2014-01-12 21:40:00,39.0,38.8,29.50,West,270,0.7,2.2,99,0.00,,,0.00,pywws,2014-01-12 21:40:00,
2014-01-12 21:45:00,38.8,38.6,29.50,South,180,0.7,1.6,99,0.00,,,0.00,pywws,2014-01-12 21:45:00,
2014-01-12 21:50:00,38.8,38.6,29.49,SW,225,0.0,1.6,99,0.00,,,0.00,pywws,2014-01-12 21:50:00,
2014-01-12 22:00:00,38.7,38.4,29.49,WNW,292,0.0,0.7,99,0.00,,,0.00,pywws,2014-01-12 22:00:00,
2014-01-12 22:05:00,38.7,38.4,29.49,East,90,0.7,2.2,99,0.00,,,0.00,pywws,2014-01-12 22:05:00,
2014-01-12 22:15:00,38.7,38.4,29.48,North,0,0.7,1.6,99,0.00,,,0.00,pywws,2014-01-12 22:15:00,
2014-01-12 22:20:00,38.8,38.6,29.47,North,0,2.2,4.5,99,0.00,,,0.00,pywws,2014-01-12 22:20:00,
2014-01-12 22:25:00,39.4,39.1,29.47,NW,315,1.6,3.1,99,0.00,,,0.00,pywws,2014-01-12 22:25:00,
2014-01-12 22:30:00,39.7,39.5,29.47,North,0,0.0,0.7,99,0.00,,,0.00,pywws,2014-01-12 22:30:00,
2014-01-12 22:35:00,39.9,39.7,29.47,NE,45,2.2,4.5,99,0.00,,,0.00,pywws,2014-01-12 22:35:00,
2014-01-12 22:40:00,40.1,39.8,29.46,NW,315,2.2,3.8,99,0.00,,,0.00,pywws,2014-01-12 22:40:00,
2014-01-12 22:45:00,40.1,39.8,29.46,North,0,2.2,4.5,99,0.00,,,0.00,pywws,2014-01-12 22:45:00,
2014-01-12 22:50:00,40.1,39.8,29.46,NW,315,0.7,4.5,99,0.00,,,0.00,pywws,2014-01-12 22:50:00,
2014-01-12 23:00:00,40.1,39.8,29.46,North,0,1.6,3.8,99,0.00,,,0.00,pywws,2014-01-12 23:00:00,
2014-01-12 23:05:00,40.5,40.2,29.45,NE,45,2.2,5.4,99,0.00,,,0.00,pywws,2014-01-12 23:05:00,
2014-01-12 23:10:00,40.8,40.6,29.46,North,0,0.7,2.2,99,0.00,,,0.00,pywws,2014-01-12 23:10:00,
2014-01-12 23:15:00,40.8,40.6,29.45,South,180,4.5,6.0,99,0.00,,,0.00,pywws,2014-01-12 23:15:00,
2014-01-12 23:20:00,40.8,40.6,29.46,South,180,2.2,5.4,99,0.00,,,0.00,pywws,2014-01-12 23:20:00,